Location: Bellerive
(46.9237°N, 7.0223°E)
Time: 03:22:22
(UTC+00:00)

Cosmos 2058 - Pass Details

Date: 09 April 2020
Orbit: 563 x 583 km, 82.5° (Epoch: 06 June)

Event Time Altitude Azimuth Distance (km) Brightness Sun altitude
Rises 19:13:40 0° 3° (N) 2,775 6.7 -10.7°
Reaches altitude 10° 19:16:20 10° 21° (NNE) 1,876 5.6 -11.1°
Maximum altitude 19:19:25 20° 69° (ENE) 1,341 4.4 -11.6°
Enters shadow 19:20:59 17° 99° (E) 1,496 4.4 -11.8°
